EHI
0 0 0 0 0 0 0 0 0 0 0 0 0 0 0 0 0 0 0 1 4 10 16 22 25 22 18 17 17 20 21 19 16 11 6 4 6 6 4 3 2 1 0 0 0 0 0 0 0
0 0 0 0 0 0 0 0 0 0 0 0 0 0 0 0 0 0 0 1 4 10 15 21 25 23 19 18 17 18 20 19 16 12 7 5 6 5 4 3 2 1 1 1 0 0 0 0 0
0 0 0 0 0 0 0 0 0 0 0 0 0 0 0 1 1 0 1 3 6 10 15 19 24 24 21 19 17 17 19 19 16 12 10 8 6 5 3 2 2 3 2 1 0 0 0 0 0
0 0 0 0 0 0 0 0 0 0 0 0 0 0 2 3 2 2 4 7 9 12 14 19 22 23 22 20 18 18 19 18 14 13 13 11 8 5 5 4 3 4 3 1 0 0 0 0 0
0 0 0 0 0 0 0 0 0 0 0 0 0 2 5 5 3 3 7 9 11 12 15 17 18 19 20 20 18 17 17 15 13 13 15 14 10 7 6 5 4 3 2 0 0 0 0 0 0
0 0 0 0 0 0 0 0 0 0 0 0 0 3 7 7 5 6 8 10 11 12 13 14 12 13 16 18 17 17 15 13 13 13 15 15 12 8 6 4 2 2 2 1 0 0 0 0 0
0 0 0 0 0 0 0 0 0 0 0 0 0 4 8 9 9 10 11 12 12 12 12 11 9 10 12 14 15 15 15 13 12 13 15 14 12 8 4 2 1 1 1 1 0 0 0 0 0
0 0 0 0 0 0 0 0 0 0 0 0 1 4 8 11 13 14 15 16 16 14 13 11 9 10 10 10 11 12 13 12 11 12 12 11 9 7 4 2 1 0 0 0 0 0 1 1 0
0 0 0 0 0 0 0 0 0 0 0 0 1 4 8 12 15 17 18 18 18 15 14 13 12 12 10 9 8 10 11 10 10 10 9 7 6 5 3 1 1 1 1 0 0 1 2 1 1
0 0 0 0 0 0 0 0 0 0 0 0 1 4 6 9 12 14 14 14 13 13 14 15 14 13 11 10 10 11 10 9 10 9 6 6 6 5 3 2 2 2 2 1 0 1 2 1 0
0 0 0 0 0 0 0 0 0 0 0 0 1 2 3 4 5 7 8 7 7 8 12 14 13 12 10 10 12 13 12 11 11 9 7 7 8 7 5 3 3 3 3 1 1 2 1 0 0
0 0 0 0 0 0 0 0 0 0 0 0 0 1 2 2 3 4 5 5 5 6 9 11 10 9 9 10 11 13 13 13 12 11 8 7 7 6 5 4 3 3 3 2 2 2 1 0 0
0 0 0 0 0 0 0 0 0 0 0 0 0 0 1 2 3 4 5 6 6 6 7 8 7 7 9 9 9 9 11 12 12 11 8 6 5 4 4 4 3 2 3 3 1 1 0 0 0
0 0 0 0 0 0 0 0 0 0 0 0 0 0 0 1 2 3 4 5 6 6 5 5 5 5 7 8 7 7 8 10 10 10 8 5 4 3 2 3 4 3 3 2 1 0 0 0 0
0 0 0 0 0 0 0 0 0 0 0 0 0 0 1 1 1 1 2 3 4 5 4 3 3 3 5 6 7 6 7 7 8 9 7 5 4 3 2 4 6 5 3 2 0 0 0 0 0
0 0 0 0 0 0 0 0 0 0 0 0 0 1 2 2 1 1 1 2 4 4 3 2 3 3 3 5 6 6 6 6 6 7 6 5 3 3 3 5 6 5 4 2 1 0 0 0 0
0 0 0 0 0 0 0 1 1 1 0 0 0 1 3 3 2 2 2 3 4 3 2 2 2 2 2 3 4 4 4 4 4 4 5 5 3 2 3 4 4 3 3 3 1 0 0 0 0
0 0 0 0 0 0 0 1 2 2 1 1 1 2 3 3 2 2 2 2 3 3 3 2 2 1 1 1 2 2 2 3 3 3 3 3 2 1 2 3 1 1 1 2 2 1 0 0 0
0 0 0 0 0 0 0 1 2 2 2 2 2 2 2 2 1 1 1 1 2 3 3 2 1 0 0 0 0 1 1 1 2 2 1 1 1 1 1 1 0 0 0 1 2 2 1 0 0
0 0 0 0 0 0 0 0 1 1 1 1 1 1 1 1 0 0 0 0 1 2 2 1 0 0 0 0 1 1 1 1 1 1 0 0 0 0 0 0 0 0 0 0 1 2 1 0 0
0 0 0 0 0 0 0 0 0 0 0 0 0 0 0 0 0 0 0 0 1 1 1 0 0 0 0 0 1 1 1 0 0 0 0 0 0 0 0 0 0 0 0 0 0 1 1 0 0
0 0 0 0 0 0 0 0 0 0 0 0 0 0 0 0 0 0 0 0 0 0 0 0 0 0 0 0 0 0 0 0 0 0 0 0 0 0 0 0 0 0 0 0 0 0 0 0 0
0 0 0 0 0 0 0 0 0 0 0 0 0 0 0 0 0 0 0 0 0 0 0 0 0 0 0 0 0 0 0 0 0 0 0 0 0 0 0 0 0 0 0 0 0 0 0 0 0
0 0 0 0 0 0 0 0 0 0 0 0 0 0 0 0 0 0 0 0 1 1 1 0 0 0 0 0 0 0 0 0 0 0 0 0 0 0 0 0 0 0 0 0 0 0 0 0 0
0 0 0 0 0 0 0 0 0 0 0 0 0 0 0 0 0 0 0 0 1 1 1 0 0 0 0 0 0 0 0 0 0 0 0 0 0 0 0 0 0 0 0 0 0 0 0 0 0
0 0 0 0 0 0 0 0 0 0 0 0 0 0 0 0 0 0 0 0 0 0 0 0 0 0 0 0 0 0 0 0 0 0 0 0 0 0 0 0 0 0 0 0 0 0 0 0 0
0 0 0 0 0 0 0 0 0 0 0 0 0 0 0 0 0 0 0 0 0 0 0 0 0 0 0 0 0 0 0 0 0 0 0 0 0 0 0 0 0 0 0 0 0 0 0 0 0
0 0 0 0 0 0 0 0 0 0 0 0 0 0 0 0 0 0 0 0 0 0 0 0 0 0 0 0 0 0 0 0 0 0 0 0 0 0 0 0 0 0 0 0 0 0 0 0 0
0 0 0 0 0 0 0 0 0 0 0 0 0 0 0 0 0 0 0 0 0 0 0 0 0 0 0 0 0 0 0 0 0 0 0 0 0 0 0 0 0 0 0 0 0 0 0 0 0
0 0 0 0 0 0 0 0 0 0 0 0 0 0 0 0 0 0 0 0 0 0 0 0 0 0 0 0 0 0 0 0 0 0 0 0 0 0 0 0 0 0 0 0 0 0 0 0 0
Wind_Speed
5 3 3 3 5 6 11 7 5 5 4 1 1 2 3 2 1 3 4 2 3 4 5 7 6 7 8 8 9 9 10 10 10 10 10 10 10 10 9 9 9 9 9 9 9 9 10 10 10
4 3 3 4 7 10 11 9 7 5 2 2 2 2 3 2 2 4 2 2 4 5 5 6 7 6 8 8 9 9 10 10 9 10 10 10 10 9 9 9 8 8 8 8 8 9 9 9 9
3 3 3 4 9 12 9 6 6 3 2 2 2 1 1 1 2 2 2 3 4 5 5 6 6 7 8 9 9 9 9 9 9 9 9 9 9 9 9 9 8 8 8 8 8 8 9 9 9
2 3 4 7 13 12 7 3 3 4 3 2 2 2 2 2 2 2 2 3 4 5 5 6 6 7 7 8 8 9 9 9 9 9 9 9 9 9 9 8 8 8 8 8 8 8 8 8 8
2 4 7 9 14 10 6 3 3 5 4 3 4 2 1 2 3 3 3 4 4 4 4 6 7 7 7 7 8 8 8 9 9 9 9 9 9 9 8 8 8 8 7 7 8 8 8 8 7
3 4 8 12 13 10 7 5 4 4 4 3 3 3 1 3 3 3 3 3 4 5 5 6 7 7 7 8 7 7 8 8 9 9 9 8 8 9 8 8 8 7 7 7 7 7 7 7 7
3 5 9 12 11 10 7 5 6 5 4 3 3 3 3 2 2 2 3 4 4 5 5 5 6 6 7 7 7 7 7 8 8 8 8 8 8 8 8 7 7 7 7 6 7 7 7 6 6
2 3 8 10 11 10 6 4 4 6 4 1 3 4 3 1 2 3 4 4 5 5 4 4 5 5 5 6 6 7 7 7 7 7 7 7 7 7 7 7 6 6 6 6 6 6 6 6 6
2 5 8 10 9 8 5 5 3 2 2 1 2 3 1 4 4 4 4 4 4 4 4 3 4 4 4 5 6 6 6 6 6 6 6 5 5 6 6 6 6 6 6 6 6 6 6 5 6
3 6 9 6 6 6 5 5 3 4 4 3 1 1 4 6 6 5 4 4 3 3 3 2 3 3 3 3 3 3 3 4 3 3 4 3 3 3 4 6 5 5 5 6 5 5 5 3 3
3 5 6 5 4 5 4 3 3 5 5 4 4 4 5 6 5 5 4 4 3 3 3 2 2 3 3 2 2 2 2 2 3 3 3 3 3 3 3 3 4 4 4 3 4 4 2 2 2
3 4 5 5 4 4 4 4 3 3 3 2 2 5 6 6 5 4 3 3 3 3 2 2 2 2 2 2 2 2 2 2 2 2 2 2 2 2 2 2 2 2 2 2 2 1 2 2 2
5 4 3 3 2 3 2 3 3 3 3 1 3 5 6 5 4 3 3 3 2 2 2 2 1 2 2 2 1 2 2 2 2 2 2 2 2 2 2 1 1 2 1 2 1 2 2 2 2
2 3 4 3 3 3 2 3 4 3 2 2 4 5 5 4 3 2 2 2 2 1 2 1 1 2 2 2 2 1 2 2 2 2 2 2 2 2 2 2 2 1 1 1 1 2 2 1 1
3 3 3 3 3 3 2 4 5 4 3 3 4 4 4 3 3 3 2 2 1 1 1 1 1 2 2 2 2 1 2 2 2 2 2 2 2 2 2 2 1 1 1 1 1 2 1 1 1
3 4 3 2 3 2 5 6 3 4 4 4 4 4 3 3 3 2 2 1 1 1 1 1 1 1 2 2 2 2 1 2 2 2 2 2 2 2 1 1 1 1 1 1 1 1 1 1 1
3 3 4 3 3 3 5 5 3 3 4 4 4 4 4 3 2 2 2 2 1 1 2 2 2 2 2 2 2 2 2 2 2 2 2 2 2 2 2 1 1 1 1 1 1 1 1 1 1
2 3 4 4 1 3 5 5 3 3 4 4 3 3 3 3 2 2 2 2 1 1 2 2 2 2 2 2 2 2 3 2 2 2 2 2 2 2 1 2 2 1 1 1 1 2 1 1 1
3 3 4 4 2 2 4 5 4 3 3 4 3 3 3 2 2 2 2 2 2 2 2 3 3 2 2 2 1 1 1 1 2 2 2 2 2 2 2 2 2 1 1 1 1 1 2 1 1
3 2 3 3 1 1 2 4 3 3 4 4 3 3 3 2 1 1 1 1 1 1 1 2 2 2 2 1 1 1 1 1 1 1 1 2 1 1 1 2 2 2 1 1 1 1 1 1 1
2 2 3 3 2 1 1 2 3 3 2 2 2 3 3 2 2 2 1 1 1 1 1 1 1 2 1 1 2 2 2 1 1 1 1 1 1 1 1 1 2 2 1 1 1 1 1 1 1
2 2 3 3 2 1 2 2 3 3 2 2 2 2 3 3 2 2 2 2 1 1 1 1 1 1 1 1 2 2 1 1 1 1 1 1 1 1 1 1 1 1 1 1 1 1 1 2 2
2 3 2 2 2 1 2 3 2 2 3 4 3 3 3 3 2 2 2 1 1 1 1 1 1 1 1 1 1 1 1 0 1 1 2 1 1 1 1 1 1 1 1 1 1 1 1 1 1
1 2 1 1 1 2 2 3 2 1 4 4 3 3 3 3 2 2 1 1 1 1 1 1 1 1 1 1 1 1 1 1 1 1 1 1 0 0 1 0 0 0 0 0 1 1 2 2 2
1 0 0 1 2 1 1 3 2 1 2 3 3 3 2 2 2 3 2 1 1 1 1 1 1 1 1 1 1 1 1 1 1 1 1 0 0 0 1 0 0 0 1 1 1 1 1 2 2
1 1 1 2 2 1 1 3 0 2 2 2 2 1 1 1 1 2 2 2 2 2 2 2 2 1 1 1 1 0 0 1 1 1 1 1 1 0 1 1 0 1 1 1 1 1 1 2 2
0 1 2 1 1 2 3 2 2 2 3 2 1 1 1 1 1 1 1 1 2 2 2 2 2 2 1 1 1 1 1 1 1 1 1 1 1 0 1 1 1 1 1 1 1 1 1 2 2
2 0 1 2 2 2 3 3 2 2 4 4 3 3 2 2 2 2 1 1 1 1 2 2 2 2 1 1 1 1 1 1 1 1 1 1 1 1 1 1 1 1 1 1 1 2 2 2 2
1 1 1 1 2 3 2 1 2 2 3 4 4 3 3 3 2 2 2 1 1 1 1 1 2 1 1 1 1 1 1 1 1 1 1 1 1 1 1 2 2 2 2 2 2 2 2 2 2
2 1 2 2 1 2 3 1 1 2 3 4 4 4 3 3 2 2 2 1 1 1 1 0 1 1 1 1 1 1 1 1 2 2 1 1 1 1 1 1 2 2 2 2 2 2 2 2 3
Wind_Direction
289 282 251 228 215 216 225 212 214 198 199 219 234 223 217 210 273 60 55 101 110 135 144 148 137 138 136 134 135 133 129 128 127 127 126 123 120 115 111 107 104 100 98 97 95 93 91 89 87
285 252 218 222 222 214 218 209 207 204 177 158 191 212 199 159 33 61 73 94 121 125 138 143 131 132 133 130 134 135 133 132 129 129 127 125 122 118 114 110 106 102 99 98 96 95 93 91 89
257 241 219 210 222 224 213 199 209 187 158 191 175 224 240 88 87 72 56 119 119 117 127 124 121 122 130 131 130 133 134 134 132 129 128 125 123 120 116 112 107 103 100 99 96 97 96 95 91
223 198 211 220 218 225 229 184 199 177 177 212 192 154 106 59 47 55 101 127 119 114 115 118 112 115 120 128 127 129 130 130 130 129 127 128 124 120 116 111 107 104 101 99 96 96 96 95 93
223 207 201 216 224 223 227 222 195 203 189 195 210 193 137 94 65 82 108 116 111 104 107 118 109 107 108 115 123 124 126 129 128 127 126 126 126 122 117 112 108 106 103 101 98 95 96 97 96
196 213 210 216 217 218 216 233 222 221 205 198 214 209 149 104 88 93 113 114 106 105 109 116 106 104 104 103 106 118 120 124 127 126 122 123 126 125 120 115 111 108 105 103 103 101 98 99 97
211 209 219 220 218 216 220 230 229 227 222 210 225 206 158 132 84 119 133 118 108 104 108 111 117 115 106 99 96 97 108 113 118 121 120 118 121 125 125 119 114 112 109 107 105 104 101 101 101
249 220 218 221 222 219 211 228 244 243 233 239 245 217 192 153 131 133 125 114 107 100 97 110 112 117 126 119 97 91 95 104 108 109 108 110 117 124 124 122 113 114 112 111 110 108 105 104 105
241 221 220 219 222 218 207 219 232 269 206 229 285 306 92 138 149 138 125 114 103 96 91 97 112 113 117 121 111 104 98 94 108 112 110 125 138 138 135 115 110 113 114 115 114 111 110 111 112
216 225 226 233 235 220 211 225 214 206 212 218 209 80 128 152 159 154 146 136 121 108 96 91 107 111 106 110 122 124 119 120 120 128 136 145 138 126 128 116 107 111 112 116 112 115 129 148 130
213 230 232 235 240 228 217 217 230 218 232 236 214 173 161 164 167 166 160 152 138 129 111 93 96 116 109 106 115 111 110 113 117 125 134 143 137 130 135 137 132 132 137 131 131 144 132 126 113
214 249 253 242 239 239 231 215 224 246 272 284 202 166 164 170 171 166 156 141 143 137 121 100 96 110 110 103 102 116 112 109 118 126 139 142 134 133 133 133 137 147 148 137 145 140 126 123 121
230 246 268 252 237 230 231 223 231 253 262 236 158 163 170 174 170 155 142 134 130 137 122 101 99 106 110 105 96 109 118 118 117 133 135 136 145 144 141 138 138 152 148 147 150 150 136 136 128
222 239 256 260 247 247 228 240 231 243 222 170 163 169 170 166 158 137 130 125 123 125 137 117 125 110 113 110 103 101 107 113 110 100 111 131 137 151 155 147 146 140 146 151 165 150 148 141 136
219 234 246 251 262 239 234 243 233 219 201 182 178 174 166 157 151 148 144 141 111 96 137 144 147 111 105 105 102 82 92 101 105 105 110 113 112 127 151 149 144 137 137 148 160 147 148 130 136
218 225 239 251 253 238 228 235 215 207 203 195 192 180 173 161 162 149 129 110 89 81 79 126 99 104 92 84 93 90 99 97 94 105 106 108 107 104 112 137 137 143 150 158 158 157 152 140 149
206 229 242 259 239 228 222 240 221 211 210 204 194 183 176 163 167 145 119 104 90 86 85 83 94 101 91 82 83 85 91 91 89 89 85 91 107 114 124 110 117 152 156 153 158 164 158 147 139
246 246 253 258 261 229 227 230 232 205 205 202 195 184 175 171 174 151 121 112 97 78 87 83 88 83 87 85 77 79 83 84 80 75 65 60 90 115 131 128 110 115 156 151 157 151 132 128 132
264 255 272 283 301 253 231 238 236 202 201 210 202 190 184 182 159 135 122 112 113 89 84 84 86 80 74 81 83 83 82 83 73 60 54 57 70 100 107 103 116 117 128 150 152 146 146 115 125
244 243 302 308 349 276 250 261 243 212 212 222 215 211 209 196 178 147 117 110 134 126 95 83 86 88 74 57 74 73 90 102 89 74 62 39 49 91 106 115 122 127 132 141 152 155 178 138 157
255 249 292 296 330 141 250 252 198 197 192 196 220 226 225 220 211 198 189 174 171 150 88 84 104 90 81 83 81 84 80 99 110 83 60 37 45 61 88 120 116 122 138 145 169 189 207 188 170
299 311 287 266 231 203 252 240 192 198 203 230 229 229 234 229 222 206 199 202 196 173 111 111 93 91 89 98 109 119 129 140 147 153 121 98 89 61 51 85 109 121 127 141 166 184 214 219 209
302 314 281 243 192 231 218 225 215 183 242 251 237 224 229 227 219 212 212 211 181 138 94 88 103 95 90 109 127 144 132 68 79 120 129 116 108 75 33 98 129 137 138 128 138 186 193 223 238
285 289 183 174 194 221 250 233 224 214 260 266 242 234 234 230 223 221 219 177 135 101 79 83 128 108 137 165 151 163 162 131 110 114 137 125 105 113 30 354 230 180 116 152 178 212 212 216 232
348 344 199 180 204 222 127 244 251 307 279 270 256 238 241 226 215 213 208 184 160 156 141 173 173 154 167 176 183 204 206 195 193 203 194 167 172 282 336 292 309 316 297 228 212 216 231 226 230
279 283 296 277 244 278 192 231 272 16 344 317 291 256 244 262 233 223 219 210 192 183 181 194 190 185 187 192 200 203 212 222 227 247 236 219 232 244 273 262 239 290 302 279 244 222 231 242 237
12 40 328 288 260 234 221 233 282 8 10 2 350 354 346 340 338 284 246 239 212 196 194 199 198 200 205 212 210 216 215 234 244 255 263 247 243 250 217 232 210 217 256 273 264 254 241 250 247
350 27 217 218 231 235 223 239 269 328 346 360 357 343 337 338 341 330 319 315 291 230 205 201 206 204 210 224 228 240 248 254 258 244 269 275 250 228 228 252 235 220 217 239 256 265 263 260 265
104 111 274 243 301 270 239 242 35 325 336 338 341 341 329 324 324 322 327 331 340 339 215 197 210 212 219 231 243 247 254 260 252 248 255 264 256 226 234 234 228 224 226 232 244 259 257 263 272
271 265 245 248 232 265 274 277 61 341 337 335 333 333 327 322 322 322 325 346 358 3 356 250 223 221 243 241 242 252 259 256 253 254 258 264 252 226 224 243 234 228 233 239 242 254 264 263 264